SES-21

Last updated on Sat Nov 15 2025 00:02:52 GMT+0000 (Coordinated Universal Time)

1 53961U 22123B 25318.42730627 .00000072 00000+0 00000+0 0 9991 2 53961 0.0362 61.1957 0000949 169.8998 205.5361 1.00269864 5056
UTC large
Height (km)
Speed (km/s)
/
Latitude / Longitude
Inclination (degrees)
Orbital Period (minutes)
Azimuth
Elevation
Range (km)
Doppler Factor

Next 0 passes for location: London (51.5072 / 0.1276)

Sorry there are no passes over London.